This is the latest recevied weather packets stored in our database for station/object SQ9NFI-4. If no packets are shown the sender has not sent any weather packets the latest 1 day(s).
| Time | Temp. | Humidity | Pressure | Rain* | Wind** | Luminosity | Snow |
|---|---|---|---|---|---|---|---|
| 1777984177 | 27.22° C | 20% | 1008.8 hPa | 0 mm | 4.02 m/s, 286° | 269 W/m² | - |
| 1777983877 | 27.78° C | 20% | 1008.8 hPa | 0 mm | 3.13 m/s, 274° | 293 W/m² | - |
| 1777983577 | 27.78° C | 19% | 1008.8 hPa | 0 mm | 4.47 m/s, 184° | 530 W/m² | - |
| 1777983277 | 27.78° C | 19% | 1008.8 hPa | 0 mm | 3.58 m/s, 225° | 523 W/m² | - |
| 1777982977 | 27.78° C | 17% | 1009.1 hPa | 0 mm | 7.15 m/s, 186° | 506 W/m² | - |
| 1777982677 | 27.78° C | 18% | 1009.1 hPa | 0 mm | 2.68 m/s, 214° | 341 W/m² | - |
| 1777982377 | 28.33° C | 16% | 1009.1 hPa | 0 mm | 3.58 m/s, 243° | 498 W/m² | - |
| 1777982077 | 28.33° C | 17% | 1009.1 hPa | 0 mm | 6.26 m/s, 303° | 549 W/m² | - |
| 1777981777 | 28.33° C | 17% | 1009.1 hPa | 0 mm | 3.13 m/s, 238° | 421 W/m² | - |
| 1777981477 | 28.89° C | 19% | 1008.8 hPa | 0 mm | 1.79 m/s, 266° | 512 W/m² | - |
| 1777981177 | 28.89° C | 17% | 1008.8 hPa | 0 mm | 4.92 m/s, 282° | 555 W/m² | - |
| 1777980877 | 28.89° C | 18% | 1008.8 hPa | 0 mm | 6.26 m/s, 223° | 634 W/m² | - |
| 1777980577 | 28.89° C | 21% | 1008.8 hPa | 0 mm | 2.24 m/s, 298° | 648 W/m² | - |
| 1777980277 | 28.89° C | 21% | 1009.1 hPa | 0 mm | 2.68 m/s, 325° | 631 W/m² | - |
| 1777979977 | 28.89° C | 20% | 1009.1 hPa | 0 mm | 5.36 m/s, 132° | 592 W/m² | - |
| 1777979677 | 28.89° C | 19% | 1009.1 hPa | 0 mm | 3.13 m/s, 218° | 589 W/m² | - |
| 1777979377 | 29.44° C | 22% | 1009.5 hPa | 0 mm | 2.68 m/s, 284° | 745 W/m² | - |
| 1777979077 | 28.33° C | 22% | 1009.5 hPa | 0 mm | 3.13 m/s, 270° | 754 W/m² | - |
| 1777978777 | 28.33° C | 23% | 1009.5 hPa | 0 mm | 2.68 m/s, 194° | 626 W/m² | - |
| 1777978477 | 28.33° C | 21% | 1009.5 hPa | 0 mm | 3.13 m/s, 226° | 631 W/m² | - |
| 1777978177 | 27.78° C | 21% | 1009.5 hPa | 0 mm | 4.92 m/s, 182° | 631 W/m² | - |
| 1777977878 | 27.78° C | 21% | 1009.5 hPa | 0 mm | 4.92 m/s, 224° | 574 W/m² | - |
| 1777977577 | 27.78° C | 21% | 1009.5 hPa | 0 mm | 9.83 m/s, 175° | 640 W/m² | - |
| 1777977277 | 27.22° C | 21% | 1009.5 hPa | 0 mm | 2.68 m/s, 114° | 663 W/m² | - |
| 1777976977 | 27.78° C | 23% | 1009.5 hPa | 0 mm | 4.92 m/s, 171° | 705 W/m² | - |
* Rain latest hour (hover to see other rain measurements)
** Current wind speed in m/s (hover to see current wind gust speed)